Weather History for Chicago DuPage, IL

Change the Weather History Date:

Wednesday, April 24, 2013

  Actual Average Record
Temperature  
Mean Temperature 43 °F 52 °F  
Max Temperature 50 °F 64 °F 84 °F (2009)
Min Temperature 36 °F 40 °F 29 °F (1999)
Degree Days  
Heating Degree Days 22 13  
Month to date heating degree days 496 405  
Since 1 July heating degree days 6280 5996  
Cooling Degree Days 0 0  
Month to date cooling degree days 0 0  
Year to date cooling degree days 0 0  
Moisture  
Dew Point 32 °F    
Average Humidity 73    
Maximum Humidity 93    
Minimum Humidity 46    
Precipitation  
Precipitation 0.01 in 0.11 in 0.45 in (2007)
Month to date precipitation 6.24 2.45  
Year to date precipitation 13.20 7.54  
Sea Level Pressure  
Sea Level Pressure 30.03 in    
Wind  
Wind Speed 11 mph (NW)    
Max Wind Speed 20 mph    
Max Gust Speed 25 mph    
Visibility 10 miles    
Events Rain    
T = Trace of Precipitation, MM = Missing Value Source: NWS Daily Summary

Daily Weather History Graph

Daily Weather History Graph

Search for Another Location

Airport:

Trip Planner

Search our weather history database for the weather conditions in past years. The results will help you decide how hot, cold, wet, or windy it might be!

Date:

Astronomy

Apr. 24, 2013 Rise Set
Actual Time 5:58 AM CDT 7:44 PM CDT
Civil Twilight 5:28 AM CDT 8:14 PM CDT
Nautical Twilight 4:52 AM CDT 8:50 PM CDT
Astronomical Twilight 4:14 AM CDT 9:29 PM CDT
Moon 6:46 PM CDT (4/24) 5:03 AM CDT (4/24)
Length of Visible Light 14h 45m
Length of Day
13h 45m
Waxing Gibbous, 98% of the Moon is Illuminated
Apr 24
Waxing Gibbous
Apr 25
Full
May 2
Last Quarter
May 9
New
May 17
First Quarter

Hourly Weather History & Observations

Time (CDT) Temp. Windchill Dew Point Humidity Pressure Visibility Wind Dir Wind Speed Gust Speed Precip Events Conditions
12:52 AM 37.9 °F 29.6 °F 35.1 °F 89% 29.96 in 7.0 mi NNW 13.8 mph - 0.02 in Rain Light Rain
1:10 AM 37.4 °F 30.3 °F 35.6 °F 93% 29.96 in 10.0 mi NNW 10.4 mph - 0.00 in Rain Light Rain
1:52 AM 37.0 °F 28.9 °F 34.0 °F 89% 29.96 in 10.0 mi NNW 12.7 mph - 0.00 in Rain Light Rain
2:52 AM 36.0 °F 28.5 °F 34.0 °F 93% 29.95 in 10.0 mi NNW 10.4 mph - 0.00 in Rain Light Rain
3:52 AM 36.0 °F 28.5 °F 34.0 °F 93% 29.97 in 10.0 mi NNW 10.4 mph - 0.00 in Rain Light Rain
4:19 AM 35.6 °F 29.9 °F 33.8 °F 93% 29.97 in 10.0 mi NNW 6.9 mph - 0.00 in Rain Light Rain
4:38 AM 35.6 °F 29.9 °F 33.8 °F 93% 29.97 in 9.0 mi NNW 6.9 mph - 0.00 in   Overcast
4:52 AM 36.0 °F 32.1 °F 34.0 °F 93% 29.99 in 8.0 mi NNW 4.6 mph - 0.00 in Rain Light Rain
5:23 AM 35.6 °F 31.7 °F 33.8 °F 93% 29.97 in 9.0 mi NNW 4.6 mph - 0.01 in   Overcast
5:52 AM 36.0 °F 33.3 °F 34.0 °F 93% 29.99 in 10.0 mi North 3.5 mph - 0.01 in   Overcast
6:52 AM 37.0 °F 31.6 °F 34.0 °F 89% 30.00 in 10.0 mi NW 6.9 mph - N/A   Overcast
7:52 AM 37.0 °F 30.4 °F 32.0 °F 82% 30.01 in 10.0 mi NNW 9.2 mph - N/A   Overcast
8:33 AM 37.4 °F 31.4 °F 32.0 °F 81% 29.99 in 10.0 mi NNW 8.1 mph - N/A   Overcast
8:52 AM 39.0 °F 32.3 °F 32.0 °F 76% 30.01 in 10.0 mi NNW 10.4 mph - N/A   Overcast
9:52 AM 39.9 °F 32.5 °F 30.9 °F 70% 30.04 in 10.0 mi NW 12.7 mph - N/A   Mostly Cloudy
10:52 AM 41.0 °F 33.5 °F 27.0 °F 57% 30.05 in 10.0 mi NW 13.8 mph - N/A   Scattered Clouds
11:52 AM 44.1 °F 37.7 °F 28.9 °F 55% 30.05 in 10.0 mi NNW 12.7 mph 20.7 mph N/A   Scattered Clouds
1:52 PM 46.9 °F - 28.9 °F 50% 30.06 in 10.0 mi NW 8.1 mph 17.3 mph N/A   Mostly Cloudy
2:52 PM 48.0 °F - 28.0 °F 46% 30.06 in 10.0 mi West 10.4 mph 18.4 mph N/A   Mostly Cloudy
3:52 PM 50.0 °F - 30.0 °F 46% 30.06 in 10.0 mi WNW 19.6 mph 25.3 mph N/A   Mostly Cloudy
4:52 PM 48.0 °F - 28.9 °F 48% 30.07 in 10.0 mi WSW 11.5 mph - N/A   Mostly Cloudy
5:52 PM 48.9 °F - 28.9 °F 46% 30.07 in 10.0 mi West 11.5 mph 20.7 mph N/A   Partly Cloudy
6:52 PM 48.0 °F - 30.0 °F 50% 30.07 in 10.0 mi WSW 10.4 mph - N/A   Partly Cloudy
7:52 PM 45.0 °F 39.7 °F 30.0 °F 56% 30.10 in 10.0 mi SW 10.4 mph - N/A   Clear
8:52 PM 43.0 °F 37.2 °F 30.9 °F 62% 30.11 in 10.0 mi SW 10.4 mph - N/A   Clear
9:52 PM 42.1 °F 37.1 °F 30.9 °F 65% 30.12 in 10.0 mi SSW 8.1 mph - N/A   Clear
10:52 PM 42.1 °F 36.1 °F 30.9 °F 65% 30.12 in 10.0 mi SSW 10.4 mph - N/A   Clear
11:52 PM 42.1 °F 35.2 °F 30.9 °F 65% 30.11 in 10.0 mi SW 12.7 mph - N/A   Clear